Other Public Products
Issued by NWS Charleston, SC

Current Version | Previous Version | Graphics & Text | Print | Product List | Glossary On
Versions: 1 2 3 4 5 6 7 8 9 10 11 12 13 14 15 16 17 18 19 20 21 22 23 24 25 26 27 28 29 30 31 32 33 34 35 36 37 38 39 40 41 42 43 44 45 46 47 48 49 50
150 FPUS82 KCHS 201627 OPUCHS TEST...KCHS/KSAV Gateway Observations...TEST National Weather Service Charleston SC 1200 PM EDT WED SEP 20 2017 NOTE: "fair" indicates few or no clouds below 12,000 feet with no significant weather and/or obstructions to visibility. SCZ050-WAZ558-NCZ071-TXZ119-213-PAZ071-DCZ001-FLZ074-172-MI076- NYZ176-178-MAZ016-IL014-TNZ027-NJZ106-GAZ044-MD014-201700- ...Gateway Observations for Charleston International... CITY SKY/WX TMP DP RH WIND PRES REMARKS Chas Airport MOSUNNY 86 70 58 VRB7 30.03F HX 90 Seattle CLOUDY 50 49 96 W6 29.65R Charlotte MOSUNNY 84 70 62 VRB5 30.06F Dallas DFW MOSUNNY 88 72 58 S20 29.89R HX 94 Dallas Love MOSUNNY 86 71 60 S13G22 29.90F HX 91 Philladelphia MOSUNNY 81 65 58 N15G22 29.90F Wash National MOSUNNY 81 66 60 NW12 29.97F Baltimore CLOUDY 80 67 64 NW7 29.95F Miami MOSUNNY 90 73 57 S6 29.98F HX 98 Detroit CLOUDY 72 68 87 S6 30.02S Newark PTSUNNY 80 65 59 N17G26 29.88R Laguardia CLOUDY 76 66 71 N16 29.86F J F K CLOUDY 80 66 62 N22G30 29.86S Boston Logan LGT RAIN 67 66 97 N22G30 29.88S FOG Ft. Lauderdale MOSUNNY 92 75 57 E10 29.98F HX 103 Chicago O`Hare MOSUNNY 83 67 58 S10 29.89F Chicago Midway MOSUNNY 83 68 60 S12 29.90F Houston Bush MOSUNNY 90 76 63 S8 29.96S HX 101 Houston Hobby MOSUNNY 90 76 63 SW8G18 29.96R HX 101 Nashville MOSUNNY 82 70 66 S5 30.07S Atlanta MOSUNNY 84 65 52 NW7 30.08S $$ GAZ044-118-TXZ119-213-NCZ071-DCZ001-MDZ014-506-PAZ021-071-NJZ106- NYZ176-178-MAZ106-OHZ011-021-055-MIZ076-KYZ091-ILZ014-INZ047- MNZ060-ONZ431-201700- ...Gateway Observations for Savannah International... CITY SKY/WX TMP DP RH WIND PRES REMARKS Savannah Arpt CLOUDY 88 73 61 VRB6 30.04F HX 95 Atlanta MOSUNNY 84 65 52 NW7 30.08S Charlotte MOSUNNY 84 70 62 VRB5 30.06F Dallas DFW MOSUNNY 88 72 58 S20 29.89R HX 94 Houston Bush MOSUNNY 90 76 63 S8 29.96S HX 101 Wash National MOSUNNY 81 66 60 NW12 29.97F Wash Dulles MOSUNNY 81 64 56 NW8 29.98F Baltimore CLOUDY 80 67 64 NW7 29.95F Philadelphia MOSUNNY 81 65 58 N15G22 29.90F Newark PTSUNNY 80 65 59 N17G26 29.88R Laguardia CLOUDY 76 66 71 N16 29.86F J F K CLOUDY 80 66 62 N22G30 29.86S Boston LGT RAIN 67 66 97 N22G30 29.88S FOG Pittsburg MOSUNNY 79 63 57 CALM 30.05S Akron PTSUNNY 79 65 62 S6 30.05F Cleveland MOSUNNY 83 65 54 CALM 30.05F Cincinnati PTSUNNY 78 72 81 SW7 30.05S Columbus MOSUNNY 77 66 68 CALM 30.04S Detroit CLOUDY 72 68 87 S6 30.02S Chicago O`Hare MOSUNNY 83 67 58 S10 29.89F Minneapolis MOSUNNY 71 60 68 W12 29.74R Indianapolis MOSUNNY 79 71 76 S8 30.01S Toronto Canada MOSUNNY 75 64 69 VRB3 30.04F $$

USA.gov is the U.S. government's official web portal to all federal, state and local government web resources and services.